Albuquerque, NM

5:14 PM MDT on September 24, 2017 (GMT -0600)
Albuquerque International Sunport

Weather History for KABQ - November, 2014

Change the Weather History Date:

Sunday, November 30, 2014

  Actual Average Record
Temperature  
Mean Temperature 48 °F 39 °F  
Max Temperature 61 °F 49 °F 69 °F (1892)
Min Temperature 34 °F 29 °F 5 °F (1976)
Degree Days  
Heating Degree Days 17 26  
Month to date heating degree days 570 602  
Since 1 July heating degree days 683 867  
Cooling Degree Days 0 0  
Month to date cooling degree days 0 0  
Year to date cooling degree days 1444 1322  
Moisture  
Dew Point 15 °F    
Average Humidity 28    
Maximum Humidity 37    
Minimum Humidity 19    
Precipitation  
Precipitation 0.00 in 0.02 in 0.29 in (1933)
Month to date precipitation 0.25 0.57  
Year to date precipitation 7.67 8.95  
Snow  
Snow 0.00 in - - ()
Month to date snowfall T  
Since 1 July snowfall T  
Since 1 September snowfall T  
Snow Depth 0.00 in    
Sea Level Pressure  
Sea Level Pressure 30.01 in    
Wind  
Wind Speed 4 mph (SE)    
Max Wind Speed 12 mph    
Max Gust Speed 12 mph    
Visibility 10 miles    
Events      
T = Trace of Precipitation, MM = Missing Value Source: NWS Daily Summary

Daily Weather History Graph

Daily Weather History Graph

Search for Another Location

Airport or City:

Trip Planner

Search our weather history database for the weather conditions in past years. The results will help you decide how hot, cold, wet, or windy it might be!

Date:

Astronomy

Nov. 30, 2014 Rise Set
Actual Time 6:55 AM MST 4:54 PM MST
Civil Twilight 6:27 AM MST 5:22 PM MST
Nautical Twilight 5:56 AM MST 5:53 PM MST
Astronomical Twilight 5:25 AM MST 6:24 PM MST
Moon 1:13 PM MST (11/30) 12:43 AM MST (11/30)
Length of Visible Light 10h 54m
Length of Day
9h 59m
Waxing Gibbous, 65% of the Moon is Illuminated
Nov 30
Waxing Gibbous
Dec 6
Full
Dec 14
Last Quarter
Dec 21
New
Dec 28
First Quarter

Hourly Weather History & Observations

Time (MST) Temp. Windchill Dew Point Humidity Pressure Visibility Wind Dir Wind Speed Gust Speed Precip Events Conditions
12:52 AM 41.0 °F 35.8 °F 12.9 °F 32% 29.94 in 10.0 mi ESE 8.1 mph - N/A   Clear
1:52 AM 43.0 °F 40.3 °F 12.9 °F 30% 29.94 in 10.0 mi SE 4.6 mph - N/A   Scattered Clouds
2:52 AM 44.1 °F 40.8 °F 12.9 °F 28% 29.93 in 10.0 mi South 5.8 mph - N/A   Mostly Cloudy
3:52 AM 37.9 °F 33.5 °F 12.9 °F 36% 29.95 in 10.0 mi SSE 5.8 mph - N/A   Partly Cloudy
4:52 AM 42.1 °F 37.7 °F 12.9 °F 31% 29.94 in 10.0 mi SSE 6.9 mph - N/A   Mostly Cloudy
5:52 AM 42.1 °F 39.2 °F 12.9 °F 31% 29.98 in 10.0 mi South 4.6 mph - N/A   Scattered Clouds
6:52 AM 39.9 °F 37.8 °F 12.9 °F 33% 30.05 in 10.0 mi SE 3.5 mph - N/A   Mostly Cloudy
7:52 AM 41.0 °F - 14.0 °F 33% 30.06 in 10.0 mi Calm Calm - N/A   Mostly Cloudy
8:52 AM 46.9 °F - 15.1 °F 28% 30.06 in 10.0 mi Calm Calm - N/A   Mostly Cloudy
9:52 AM 51.1 °F - 16.0 °F 25% 30.07 in 10.0 mi WNW 3.5 mph - N/A   Mostly Cloudy
10:52 AM 54.0 °F - 15.1 °F 22% 30.05 in 10.0 mi Calm Calm - N/A   Mostly Cloudy
11:52 AM 55.9 °F - 17.1 °F 22% 30.00 in 10.0 mi NW 3.5 mph - N/A   Mostly Cloudy
12:52 PM 59.0 °F - 18.0 °F 20% 29.97 in 10.0 mi Calm Calm - N/A   Overcast
1:52 PM 59.0 °F - 17.1 °F 20% 29.95 in 10.0 mi ENE 3.5 mph - N/A   Overcast
2:52 PM 61.0 °F - 17.1 °F 18% 29.94 in 10.0 mi ENE 3.5 mph - N/A   Mostly Cloudy
3:52 PM 59.0 °F - 17.1 °F 20% 29.97 in 10.0 mi ENE 5.8 mph - N/A   Mostly Cloudy
4:52 PM 55.0 °F - 17.1 °F 23% 29.97 in 10.0 mi ESE 5.8 mph - N/A   Mostly Cloudy
5:52 PM 50.0 °F - 16.0 °F 26% 30.03 in 10.0 mi ESE 8.1 mph - N/A   Partly Cloudy
6:52 PM 48.0 °F - 14.0 °F 26% 30.05 in 10.0 mi East 4.6 mph - N/A   Partly Cloudy
7:52 PM 42.1 °F 39.2 °F 14.0 °F 32% 30.08 in 10.0 mi ESE 4.6 mph - N/A   Partly Cloudy
8:52 PM 45.0 °F 40.6 °F 15.1 °F 30% 30.05 in 10.0 mi ENE 8.1 mph - N/A   Clear
9:52 PM 45.0 °F - 15.1 °F 30% 30.07 in 10.0 mi Calm Calm - N/A   Clear
10:52 PM 37.0 °F 29.8 °F 14.0 °F 39% 30.10 in 10.0 mi SE 10.4 mph - N/A   Clear
11:52 PM 39.9 °F 36.7 °F 16.0 °F 38% 30.10 in 10.0 mi SSW 4.6 mph - N/A   Clear